Regional Weather Roundup
Issued by NWS Midland/Odessa, TX

Home | Current Version | Previous Version | Text Only | Print | Product List | Glossary On
Versions: 1 2 3 4 5 6 7 8 9 10 11 12 13 14 15 16 17 18 19 20 21 22 23 24 25 26 27 28 29 30 31 32 33 34 35 36 37 38 39 40 41 42 43 44 45 46 47 48 49 50
000
ASUS44 KMAF 050610
RWRMAF
MIDLAND AREA WEATHER ROUNDUP
NATIONAL WEATHER SERVICE MIDLAND TX
100 AM CDT SAT SEP 05 2015

...IN SOUTHWEST TEXAS AND SOUTHEAST NEW MEXICO...

CITY           SKY/WX    TMP DP  RH WIND       PRES   REMARKS
ALPINE         CLEAR     75  57  53 S10       30.12S
ANDREWS        FAIR      73  55  53 SE3       30.00S
ARTESIA        CLEAR     73  50  43 S7        30.00S
BIG SPRING     CLEAR     80  57  45 SE12      29.99R
CARLSBAD       CLEAR     78  51  38 S8        29.97S
DRYDEN           N/A     85  62  46 SE8       29.93S
FORT STOCKTON  CLEAR     80  59  48 SE13      29.98S
GUAD PASS      CLEAR     73  49  42 NE23      30.12F
HOBBS            N/A     72  54  53 SE6       30.03S
MARFA          CLEAR     72  55  56 NE5       30.10S
MIDLAND AIRPK  CLEAR     81  53  38 E5        29.98F
MIDLAND INTL   CLEAR     78  53  41 SE7       29.97F
ODESSA         CLEAR     82  53  36 S12       29.99S
PECOS          CLEAR     77  52  41 E5        29.94S
PRESIDIO       FAIR      86  58  38 MISG      29.91S
SEMINOLE       CLEAR     73  53  50 SE3       30.02R
SNYDER         CLEAR     78  61  57 E6        29.97F
WINK           CLEAR     79  54  41 SE8       29.95S
$$
...OTHER STATIONS IN TEXAS...

CITY           SKY/WX    TMP DP  RH WIND       PRES   REMARKS
ABILENE        CLEAR     81  65  58 SE15      29.96S
AMARILLO       PTCLDY    75  55  49 SE13      30.03S
AUSTIN         CLEAR     77  72  84 S6        29.95R
BROWNSVILLE    PTCLDY    83  80  91 SE9       29.93S
CORPUS CHRISTI PTCLDY    81  77  88 SE9       29.92S
DALLAS FTW     CLEAR     85  70  60 S9        29.93S
DEL RIO        CLEAR     85  70  60 E10G18    29.89R
EL PASO        CLOUDY    80  55  42 NW10      30.01F
HOUSTON INT    PTCLDY    78  75  90 S3        29.95S
LUBBOCK        PTCLDY    74  55  51 SE8       30.01S
SAN ANGELO     PTCLDY    81  61  50 S6        29.94S
SAN ANTONIO    MOCLDY    81  74  79 SE12      29.96S
WACO           CLEAR     82  71  69 S12       29.94R
WICHITA FALLS  NOT AVBL
$$
...OTHER LOCATIONS IN NEW MEXICO...

CITY           SKY/WX    TMP DP  RH WIND       PRES   REMARKS
ALAMAGORDO     CLOUDY    75  57  53 NE10      30.05F
ALBUQUERQUE    CLOUDY    64  59  83 E7        30.16S
CANNON AFB     MOCLDY    73  53  50 SW6       30.07R
CLOVIS         PTCLDY    70  52  52 S3        30.07F
HOLLOMAN AFB   CLOUDY    74  58  56 N12       30.03F
ROSWELL        CLEAR     76  54  46 NE5       30.01S
RUIDOSO        CLOUDY    63  54  72 SW7       30.27R
SANTA FE       CLOUDY    59  56  89 CALM      30.20F
TRUTH OR CONSE CLOUDY    67  61  81 W5        30.11F
TUCUMCARI      MOCLDY    72  55  55 CALM      30.03S
$$



USA.gov is the U.S. government's official web portal to all federal, state and local government web resources and services.